Weather in Privolzhskiy

Russia / Republic of Tatarstan     54°59′08″N   49°04′49″E
temp.,
°C
wind,
m/s
gust,
m/s
humid.,
%
clouds,
%
prec.,
mm/h
press.,
hPa
HPBL,
m
6 march, sat
sat600:00−12wsw44900 0.0 100927
03:00−10wsw479433 0.0 101191
06:00−12wnw589448 0.0 101297
09:00−12wnw699124 0.0 1014213
12:00−10wnw34850 0.0 1015241
15:00−10wsw33880 0.0 101456
18:00−13sw34860 0.0 101422
21:00−14wsw34860 0.0 101422
7 march, sun
sun700:00−15w33920 0.0 101220
03:00−16w23950 0.0 101220
06:00−16wsw239764 0.0 101220
09:00−14sw239465 0.0 101181
12:00−10ssw469043 0.0 1009305
15:00−8s599156 0.0 1007284
18:00−8s7138595 0.0 1004318
21:00−7s9159398 0.9 1001677
8 march, mon
mon800:00−5s91694100 1.2 996677
03:00−4sw91595100 2.9 994656
06:00−10wsw7138067 0.3 995225
09:00−9wsw8138078 0.3 998489
12:00−7sw6118325 0.0 998563
15:00−4w9138962 0.9 9971048
18:00−7wsw6118550 0.1 998142
21:00−10w568935 0.1 100083
9 march, tue
tue900:00−12w56900 0.0 100282
03:00−14w55940 0.0 100466
06:00−15w559519 0.0 100663
09:00−15wnw589229 0.0 1008234
12:00−13wnw578839 0.0 1010415
15:00−12wnw478763 0.0 1011380
18:00−16wnw459251 0.0 101239
21:00−18wnw569326 0.0 101467
10 march, wed
wed1000:00−20wnw55960 0.0 101461
03:00−20wnw459625 0.0 101557
06:00−22nw459697 0.0 101583
09:00−19nw579299 0.1 1017279
12:00−18nw5789100 0.0 1018441
15:00−18nw5788100 0.1 1018512
18:00−21nw579499 0.0 1020102
21:00−23nw459689 0.0 102250